TimeEDT,TemperatureF,Dew PointF,Humidity,Sea Level PressureIn,VisibilityMPH,Wind Direction,Wind SpeedMPH,Gust SpeedMPH,PrecipitationIn,Events,Conditions,WindDirDegrees,DateUTC
12:53 AM,70.0,66.9,90,29.77,5.0,SW,3.5,-,N/A,,Partly Cloudy,220,2013-09-02 04:53:00
1:53 AM,68.0,66.0,93,29.77,5.0,South,3.5,-,N/A,,Clear,190,2013-09-02 05:53:00
2:53 AM,69.1,66.9,93,29.76,5.0,SW,4.6,-,N/A,,Clear,220,2013-09-02 06:53:00
3:53 AM,69.1,66.9,93,29.74,4.0,SW,4.6,-,N/A,,Partly Cloudy,220,2013-09-02 07:53:00
4:53 AM,69.1,66.0,90,29.75,4.0,WSW,8.1,-,N/A,,Clear,240,2013-09-02 08:53:00
5:20 AM,69.8,66.2,88,29.77,3.0,WSW,3.5,-,N/A,,Partly Cloudy,250,2013-09-02 09:20:00
5:44 AM,69.8,66.2,88,29.77,3.0,SW,5.8,-,N/A,,Mostly Cloudy,220,2013-09-02 09:44:00
5:53 AM,69.1,66.0,90,29.76,3.0,WSW,4.6,-,N/A,,Mostly Cloudy,240,2013-09-02 09:53:00
6:45 AM,69.8,66.2,88,29.78,2.5,Calm,Calm,-,N/A,,Overcast,0,2013-09-02 10:45:00
6:53 AM,69.1,66.9,93,29.78,2.0,Calm,Calm,-,N/A,,Overcast,0,2013-09-02 10:53:00
7:04 AM,69.8,66.2,88,29.79,1.2,West,3.5,-,N/A,,Overcast,260,2013-09-02 11:04:00
7:13 AM,69.8,66.2,88,29.80,1.0,WSW,3.5,-,N/A,,Overcast,240,2013-09-02 11:13:00
7:25 AM,69.8,66.2,88,29.80,0.5,SW,3.5,-,N/A,Fog,Fog,220,2013-09-02 11:25:00
7:53 AM,69.1,66.9,93,29.79,0.2,SW,4.6,-,N/A,Fog,Fog,230,2013-09-02 11:53:00
8:53 AM,70.0,68.0,93,29.80,0.5,WSW,6.9,-,N/A,Fog,Fog,240,2013-09-02 12:53:00
9:01 AM,69.8,68.0,94,29.82,1.2,WSW,4.6,-,N/A,,Overcast,250,2013-09-02 13:01:00
9:13 AM,69.8,66.2,88,29.82,3.0,NW,8.1,-,0.01,Rain,Light Rain,320,2013-09-02 13:13:00
9:33 AM,69.8,66.2,88,29.83,2.5,NW,6.9,-,0.09,Rain,Rain,320,2013-09-02 13:33:00
9:41 AM,69.8,66.2,88,29.83,6.0,NNW,4.6,-,0.09,Rain,Light Rain,340,2013-09-02 13:41:00
9:50 AM,71.6,66.2,83,29.83,8.0,NNW,4.6,-,0.09,,Overcast,340,2013-09-02 13:50:00
9:53 AM,71.1,68.0,90,29.82,8.0,NNW,5.8,-,0.09,,Overcast,340,2013-09-02 13:53:00
10:27 AM,71.6,66.2,83,29.84,10.0,NNW,9.2,-,N/A,,Mostly Cloudy,330,2013-09-02 14:27:00
10:53 AM,72.0,66.9,84,29.83,10.0,NW,10.4,-,N/A,,Overcast,320,2013-09-02 14:53:00
11:37 AM,73.4,66.2,78,29.85,10.0,NW,11.5,-,N/A,,Overcast,320,2013-09-02 15:37:00
11:53 AM,75.0,64.0,69,29.84,10.0,NNW,11.5,-,N/A,,Mostly Cloudy,330,2013-09-02 15:53:00
12:53 PM,77.0,63.0,62,29.84,10.0,NW,13.8,-,N/A,,Partly Cloudy,310,2013-09-02 16:53:00
1:53 PM,77.0,59.0,54,29.84,10.0,NW,10.4,-,N/A,,Clear,320,2013-09-02 17:53:00
2:53 PM,79.0,60.1,52,29.83,10.0,NNW,10.4,-,N/A,,Scattered Clouds,330,2013-09-02 18:53:00
3:53 PM,79.0,57.9,48,29.82,10.0,WNW,12.7,-,N/A,,Partly Cloudy,290,2013-09-02 19:53:00
4:53 PM,77.0,57.9,52,29.82,10.0,NW,13.8,-,N/A,,Partly Cloudy,310,2013-09-02 20:53:00
5:53 PM,78.1,57.0,48,29.82,10.0,NNW,15.0,-,N/A,,Partly Cloudy,340,2013-09-02 21:53:00
6:53 PM,75.0,55.9,51,29.83,10.0,NNW,17.3,24.2,N/A,,Partly Cloudy,330,2013-09-02 22:53:00
7:53 PM,71.1,55.9,59,29.85,10.0,NW,10.4,-,N/A,,Clear,320,2013-09-02 23:53:00
8:53 PM,68.0,55.9,65,29.87,10.0,NNW,9.2,-,N/A,,Partly Cloudy,330,2013-09-03 00:53:00
9:53 PM,68.0,55.9,65,29.89,10.0,NNW,8.1,-,N/A,,Mostly Cloudy,340,2013-09-03 01:53:00
10:53 PM,64.9,54.0,68,29.90,10.0,NNW,11.5,-,N/A,,Partly Cloudy,340,2013-09-03 02:53:00
11:53 PM,63.0,51.1,65,29.91,10.0,NNW,12.7,-,N/A,,Clear,340,2013-09-03 03:53:00